SP6RGZ-1 Weather Reports


time (UTC)temp
F
wind
direction
speed
knots
gust
knots
rain 1hr
in
rain 24hr
in
rain mn
in
humidity
%
barometer
mb
20260905151502 73 0.0 0.0 0.00 0.00 0.00 48 997.1
20260905150002 73 0.0 0.0 0.00 0.00 0.00 48 997.0
20260905144502 73 0.0 0.0 0.00 0.00 0.00 47 997.0
20260905143002 73 0.0 0.0 0.00 0.00 0.00 48 996.9
20260905141502 73 0.0 0.0 0.00 0.00 0.00 48 996.9
20260905140002 74 0.0 0.0 0.00 0.00 0.00 46 997.0
20260905134502 75 0.0 0.0 0.00 0.00 0.00 48 996.9
20260905133003 74 0.0 0.0 0.00 0.00 0.00 48 996.9
20260905131502 74 0.0 0.0 0.00 0.00 0.00 52 996.9
20260905130002 73 0.0 0.0 0.00 0.00 0.00 52 997.0
20260905124502 73 0.0 0.0 0.00 0.00 0.00 51 997.1
20260905123002 73 0.0 0.0 0.00 0.00 0.00 51 997.1
20260905121502 72 0.0 0.0 0.00 0.00 0.00 55 997.4
20260905120002 73 0.0 0.0 0.00 0.00 0.00 51 997.5
20260905114502 72 0.0 0.0 0.00 0.00 0.00 56 997.6
20260905113002 73 0.0 0.0 0.00 0.00 0.00 55 997.5
20260905111501 71 0.0 0.0 0.00 0.00 0.00 56 997.5
20260905110002 73 0.0 0.0 0.00 0.00 0.00 55 997.6
20260905104502 71 0.0 0.0 0.00 0.00 0.00 58 997.4
20260905103002 72 0.0 0.0 0.00 0.00 0.00 56 997.4
20260905101502 72 0.0 0.0 0.00 0.00 0.00 57 997.4
20260905100002 72 0.0 0.0 0.00 0.00 0.00 57 997.2
20260905094502 71 0.0 0.0 0.00 0.00 0.00 59 997.3
20260905093002 71 0.0 0.0 0.00 0.00 0.00 59 997.2
20260905091502 70 0.0 0.0 0.00 0.00 0.00 61 997.3
20260905090002 69 0.0 0.0 0.00 0.00 0.00 65 997.3
20260905084502 70 0.0 0.0 0.00 0.00 0.00 64 996.9
20260905083002 70 0.0 0.0 0.00 0.00 0.00 64 996.9
20260905081502 70 0.0 0.0 0.00 0.00 0.00 65 996.9
20260905080002 68 0.0 0.0 0.00 0.00 0.00 72 996.8
20260905074503 68 0.0 0.0 0.00 0.00 0.00 76 996.5
20260905073002 68 0.0 0.0 0.00 0.00 0.00 75 996.5
20260905071502 67 0.0 0.0 0.00 0.00 0.00 81 996.3
20260905070002 67 0.0 0.0 0.00 0.00 0.00 84 996.1
20260905064502 67 0.0 0.0 0.00 0.00 0.00 85 996.0
20260905063002 66 0.0 0.0 0.00 0.00 0.00 90 995.7
20260905061502 65 0.0 0.0 0.00 0.00 0.00 92 995.8
20260905060002 65 0.0 0.0 0.00 0.00 0.00 95 995.7
20260904203002 67 0.0 0.0 0.00 0.00 0.00 96 991.1
20260904201502 67 0.0 0.0 0.00 0.00 0.00 95 991.2
20260904200002 67 0.0 0.0 0.00 0.00 0.00 95 991.5
20260904194502 72 0.0 0.0 0.00 0.00 0.00 76 991.7
20260904193002 73 0.0 0.0 0.00 0.00 0.00 72 990.0
20260904191502 73 0.0 0.0 0.00 0.00 0.00 69 990.0
20260904190002 75 0.0 0.0 0.00 0.00 0.00 67 989.8
20260904183002 78 0.0 0.0 0.00 0.00 0.00 66 987.8
20260904181502 78 0.0 0.0 0.00 0.00 0.00 67 987.9
20260904180003 78 0.0 0.0 0.00 0.00 0.00 67 987.6
20260904174502 78 0.0 0.0 0.00 0.00 0.00 66 987.8
20260904173002 79 0.0 0.0 0.00 0.00 0.00 65 988.1
20260904171503 79 0.0 0.0 0.00 0.00 0.00 64 988.3
20260904170002 80 0.0 0.0 0.00 0.00 0.00 64 988.6
20260904164502 80 0.0 0.0 0.00 0.00 0.00 64 988.6
20260904163002 80 0.0 0.0 0.00 0.00 0.00 63 988.8
20260904161502 81 0.0 0.0 0.00 0.00 0.00 62 988.9
20260904160002 81 0.0 0.0 0.00 0.00 0.00 62 989.0
20260904154502 81 0.0 0.0 0.00 0.00 0.00 62 989.0
20260904153002 82 0.0 0.0 0.00 0.00 0.00 60 989.0